Location: Peterborough
(44.3091°N, 78.3197°W)
Time: 01:24:54
(UTC-04:00)

Vanguard 2 Rocket - Pass Details

Date: 26 March 2023
Orbit: 554 x 3314 km, 32.9° (Epoch: 02 June)

Event Time Altitude Azimuth Distance (km) Brightness Sun altitude
Rises 19:27:55 0° 214° (SSW) 3,243 10.2 0.1°
Reaches altitude 10° 19:30:31 10° 197° (SSW) 2,572 9.4 -0.4°
Maximum altitude 19:35:12 22° 148° (SSE) 2,298 8.7 -1.2°
Drops below altitude 10° 19:41:58 10° 102° (ESE) 3,869 9.4 -2.4°
Enters shadow 19:45:18 - 93° (E) 4,889 9.9 -3.0°
Sets 19:47:00 0° 90° (E) 5,418 - -3.3°
